User: anonymous   Login
Location: Unspecified
(0.0000°N, 0.0000°E)
Time: 10:40:57
(UTC+01:00)
Language:

Iridium 33 - Orbit

View from above orbital plane
View from above orbital plane
View from above satellite
View from above satellite

Ground track
Ground track

The orbit data is extracted from the following two-line orbital elements,

1 24946U 97051C   14332.51320145  .00000490  00000-0  17105-3 0  1779
2 24946 086.3859 316.5956 0009020 051.2610 096.0897 14.33242045900575
Epoch (UTC): 28 November 2014 12:19:00
Eccentricity: 0.0009020
inclination: 86.3859°
perigee height: 774 km
apogee height: 787 km
right ascension of ascending node: 316.5956°
argument of perigee: 51.2610°
revolutions per day: 14.33242045
mean anomaly at epoch: 96.0897°
orbit number at epoch: 90057

The dashed part of the orbit path shows where the satellite is in the earth's shadow,  

DLR